Location: Lake Almanor
(40.2485°N, 121.1442°W)
Time: 22:27:17
(UTC-08:00)

STARLINK-1085 - Pass Details

Date: 28 January 2020
Orbit: 348 x 351 km, 53.0° (Epoch: 22 February)

Event Time Altitude Azimuth Distance (km) Brightness Sun altitude
Rises 18:18:43 0° 320° (NW) 2,180 7.1 -11.8°
Reaches altitude 10° 18:21:30 10° 348° (NNW) 1,332 5.6 -12.3°
Maximum altitude 18:23:06 14° 21° (NNE) 1,145 4.9 -12.6°
Enters shadow 18:23:19 13° 26° (NNE) 1,149 4.9 -12.7°
